User: anonymous   Login
Location: Observatory
(49.4490°N, 2.6360°W)
Time: 19:06:47
(UTC+01:00)
Language:

PRISM - Orbit

View from above orbital plane
View from above orbital plane
View from above satellite
View from above satellite

Ground track
Ground track

The orbit data is extracted from the following two-line orbital elements,

1 33493U 09002B   24149.09323848  .00016468  00000-0  79892-3 0  9993
2 33493  98.2057 194.9965 0010798 317.1146  42.9243 15.18538085836001
Epoch (UTC): 28 May 2024 02:14:15
Eccentricity: 0.0010798
inclination: 98.2057°
perigee height: 503 km
apogee height: 518 km
right ascension of ascending node: 194.9965°
argument of perigee: 317.1146°
revolutions per day: 15.18538085
mean anomaly at epoch: 42.9243°
orbit number at epoch: 83600

The dashed part of the orbit path shows where the satellite is in the earth's shadow,  

DLR